Vertical_Velocity
2 2 1 3 4 4 1 1 1 1 -0 1 1 0 -0 -0 -1 -2 -3 -4 -4 -4 -3 -2 -2 -2 -2 -2 -3 -3 -4 -4 -4 -4 -4 -4 -5 -5 -6 -6 -7 -7 -8 -8 -9 -9 -9 -10 -10 -10 -10 -10 -10 -11 -11 -10 -10 -9 -8 -6 -6 -5 -5 -6 -6 -6 -6 -6 -5 -5 -4 -4 -4 -3 -2 -2 -1 -1 -0 -1 -2 -3 -4 -4 -3 -1
1 1 2 3 4 4 0 1 2 2 1 1 2 2 2 2 2 0 -1 -2 -1 -1 -2 -2 -2 -1 -1 -2 -3 -3 -4 -5 -5 -4 -4 -4 -4 -5 -6 -6 -6 -7 -8 -8 -8 -9 -9 -9 -10 -10 -10 -10 -10 -10 -10 -9 -8 -7 -6 -5 -4 -4 -5 -6 -6 -6 -6 -6 -5 -5 -4 -4 -3 -3 -2 -2 -1 -1 -0 -0 -1 -1 -2 -3 -3 -2
1 -0 -0 1 3 4 2 0 1 2 2 1 1 3 4 3 2 2 2 -0 -0 0 1 -1 -1 -1 -1 -1 -2 -3 -4 -4 -4 -4 -3 -3 -4 -4 -5 -5 -6 -7 -7 -8 -8 -9 -9 -10 -10 -10 -10 -10 -9 -9 -8 -7 -6 -5 -4 -4 -4 -5 -6 -6 -7 -7 -6 -6 -5 -4 -4 -3 -3 -2 -2 -2 -2 -1 -1 -1 -1 -1 -1 -2 -2 -2
3 1 -1 1 2 3 3 2 1 -0 1 1 1 3 5 4 3 2 3 3 2 1 1 1 0 -1 -1 -1 -2 -2 -3 -4 -3 -3 -2 -2 -2 -3 -4 -4 -5 -6 -7 -8 -9 -9 -10 -10 -10 -10 -10 -9 -8 -7 -6 -5 -4 -3 -3 -3 -4 -5 -6 -7 -7 -7 -6 -5 -4 -4 -3 -3 -2 -2 -2 -2 -2 -1 -1 -1 -1 -1 -1 -2 -2 -2
3 2 0 2 2 2 2 4 2 -1 -2 1 2 3 4 4 4 3 3 4 4 3 2 2 1 0 -0 -1 -2 -2 -3 -2 -2 -1 -1 -1 -1 -2 -3 -4 -5 -6 -7 -8 -9 -10 -10 -10 -9 -9 -8 -8 -7 -6 -5 -4 -3 -2 -2 -2 -3 -5 -6 -7 -6 -6 -5 -4 -4 -3 -3 -2 -2 -2 -2 -2 -1 -1 -1 -1 -1 -1 -1 -2 -2 -3
2 2 1 3 3 2 2 3 3 1 -3 -1 2 4 4 3 3 3 3 4 4 4 3 3 2 1 0 -0 -1 -2 -3 -2 -1 0 0 -0 -1 -2 -3 -5 -6 -7 -8 -9 -9 -10 -9 -9 -8 -7 -7 -6 -6 -4 -3 -2 -1 -0 -0 -1 -3 -4 -6 -6 -5 -5 -4 -3 -3 -3 -2 -2 -2 -1 -1 -1 -1 -1 -1 -1 -1 -1 -2 -2 -2 -2
1 2 2 1 1 2 4 3 2 1 -0 -2 -1 2 4 4 3 2 2 4 4 4 2 2 3 4 2 -1 -2 -2 -2 -2 -1 -0 1 1 -1 -3 -5 -6 -6 -7 -8 -9 -9 -9 -8 -7 -7 -6 -5 -4 -4 -3 -2 -0 1 1 1 -1 -3 -4 -5 -5 -4 -4 -3 -3 -3 -3 -2 -2 -2 -1 -1 -1 -1 -0 -0 -0 -1 -1 -1 -1 -2 -2
-0 1 3 2 -0 -1 3 4 2 0 -1 -1 -1 -1 -1 1 2 2 1 3 4 4 2 1 2 4 5 1 -2 -4 -2 -1 -1 -1 -1 -0 -1 -3 -5 -6 -6 -6 -7 -8 -8 -8 -7 -6 -5 -5 -4 -3 -2 -1 0 1 2 2 1 -1 -3 -4 -5 -4 -3 -3 -3 -3 -3 -2 -2 -2 -1 -1 -1 -0 -0 -0 -0 -0 -1 -1 -1 -1 -1 -2
0 -1 -1 2 2 -0 -2 1 3 3 0 -1 -1 -1 -3 -4 -2 1 3 2 2 2 3 2 2 3 5 5 1 -4 -6 -2 1 2 -0 -2 -3 -4 -5 -5 -5 -6 -5 -6 -6 -6 -6 -5 -4 -4 -3 -3 -2 -0 1 2 3 2 0 -2 -3 -4 -4 -4 -3 -2 -2 -2 -2 -2 -2 -2 -1 -1 -0 -0 -0 -0 -0 -0 -0 -0 -0 -1 -1 -1
0 -0 -2 -1 2 4 2 -2 -1 2 4 1 -1 -1 -1 -4 -6 -4 1 3 3 2 2 3 3 3 2 4 3 1 -4 -4 -2 1 2 -1 -3 -4 -6 -4 -4 -4 -5 -4 -4 -5 -5 -4 -4 -4 -4 -3 -1 0 2 3 2 2 -0 -2 -3 -4 -4 -3 -3 -2 -2 -2 -2 -2 -2 -1 -1 -1 -0 -0 -0 -0 -0 -0 -0 0 0 -0 -0 -0
-3 -2 -0 -1 -0 2 4 1 -1 -1 2 1 -1 -2 0 0 -1 -2 -3 -0 1 2 0 2 5 7 5 1 -0 -0 0 -1 -2 -2 -0 -1 -2 -4 -6 -4 -3 -2 -3 -3 -3 -4 -5 -5 -5 -5 -4 -3 -2 0 2 2 2 1 -0 -2 -3 -3 -4 -3 -3 -2 -2 -2 -2 -2 -1 -1 -1 -1 -1 -1 -1 -1 -0 -0 0 0 0 0 0 0
-2 -3 -2 -0 1 1 1 1 1 1 2 2 -1 -3 -4 -1 2 3 1 -1 -0 0 -1 -1 2 7 9 4 -0 -4 -3 -1 1 2 2 -1 -2 -3 -3 -3 -2 -1 -1 -1 -2 -3 -4 -5 -5 -5 -5 -3 -1 1 2 2 2 1 -0 -1 -2 -3 -3 -3 -3 -2 -2 -2 -2 -2 -1 -1 -1 -1 -1 -1 -1 -1 -0 -0 -0 -0 -0 -0 -0 -0
-2 -2 -1 -1 1 2 2 0 -0 0 2 3 2 -1 -4 -3 -0 2 1 0 1 1 -1 -2 -0 3 5 4 2 -1 -3 -3 -1 2 6 3 -0 -2 -3 -1 0 1 -0 -1 -1 -2 -3 -4 -4 -4 -4 -3 -1 1 2 2 1 0 -0 -1 -1 -2 -2 -2 -2 -2 -2 -2 -2 -2 -1 -1 -1 -1 -1 -1 -1 -1 -1 -0 -0 -1 -1 -1 -0 0
-3 -2 -1 1 1 1 2 2 2 1 1 1 0 -0 -1 -0 1 0 -2 -3 -2 -0 0 -0 1 4 5 2 -2 -4 -3 -2 -1 0 2 4 3 -0 -4 -1 1 2 -0 -1 -2 -2 -3 -3 -4 -4 -3 -1 0 1 2 1 0 -0 -0 -1 -1 -2 -2 -2 -2 -2 -2 -2 -2 -2 -1 -1 -1 -1 -1 -1 -1 -1 -1 -1 -1 -1 -2 -1 0 1
-2 -1 -1 -0 2 3 2 2 2 1 1 2 1 -1 -2 -1 1 2 1 -3 -4 -3 -1 -2 -2 1 7 8 3 -3 -7 -4 1 4 1 2 3 3 -2 -3 -1 1 0 -2 -3 -3 -3 -3 -4 -4 -3 -1 1 2 2 1 0 -0 -0 -1 -1 -2 -2 -2 -2 -2 -2 -2 -2 -1 -1 -1 -1 -1 -1 -1 -1 -2 -1 -2 -2 -1 -1 -0 0 0
-0 2 2 1 2 3 4 5 3 1 -1 -0 1 2 2 -2 -2 0 3 -1 -4 -4 -1 -1 -2 -3 -3 0 4 4 -1 -6 -1 6 7 0 2 4 2 -2 -2 -0 -0 -1 -3 -4 -4 -4 -5 -5 -3 -0 2 3 2 1 0 -0 -0 -1 -1 -1 -2 -2 -2 -2 -2 -2 -1 -1 -1 -1 -1 -1 -1 -2 -2 -2 -2 -2 -2 -1 -1 -0 -0 -0
2 2 2 3 2 2 2 4 5 3 0 -2 -2 -0 4 3 1 -1 -0 -1 -2 -4 -5 -1 2 2 -2 -7 -7 -2 4 -3 -3 1 8 3 2 3 2 -1 -2 -1 -1 -2 -3 -4 -4 -5 -6 -6 -4 -0 2 3 2 1 0 -0 -0 -1 -1 -2 -2 -2 -2 -2 -2 -1 -1 -1 -0 -1 -1 -1 -1 -1 -2 -2 -2 -2 -1 -1 -1 -1 -1 -1
4 4 2 2 1 1 1 2 1 0 -0 -1 -2 -3 -1 2 3 2 -1 -1 -1 -2 -5 -6 -4 -0 4 -1 -7 -7 2 -0 -2 -1 5 4 4 3 2 1 -0 -1 -1 -2 -3 -3 -4 -5 -6 -6 -4 -1 1 3 2 1 0 -0 -0 -1 -1 -2 -2 -2 -2 -2 -1 -1 -1 -0 -0 -1 -1 -1 -1 -1 -1 -2 -2 -1 -1 -1 -1 -1 -1 -1
1 4 4 -0 -2 -1 2 2 0 -2 -4 -3 -2 -1 -2 -2 0 2 -1 -1 -1 -0 0 -2 -5 -6 -1 -2 -5 -6 -0 -1 -1 -0 3 4 5 5 3 2 1 0 0 -1 -2 -3 -4 -5 -6 -6 -4 -1 1 2 2 1 0 -0 -0 -1 -1 -2 -2 -2 -2 -2 -1 -1 -1 -0 -0 -0 -1 -1 -1 -1 -1 -2 -2 -1 -1 -1 -1 -1 -1 -1
-1 1 4 -0 -4 -5 -2 1 1 -1 -4 -5 -3 -0 -0 -1 -1 -0 -1 -1 -3 -3 -2 -0 -2 -4 -3 -3 -6 -6 -1 -1 -1 -0 2 4 6 6 4 3 2 1 1 0 -1 -2 -3 -6 -7 -7 -4 -1 1 1 1 1 0 0 -0 -1 -1 -1 -1 -2 -2 -2 -1 -1 -1 -0 -0 -0 -0 -1 -1 -1 -2 -2 -2 -1 -1 -1 -1 -1 -1 -2
-2 -2 -0 1 -2 -5 -7 -3 -1 -1 -4 -6 -6 -4 -3 -3 -3 -3 -2 -1 -3 -5 -5 -3 -4 -3 -1 -0 -2 -3 -1 -0 -1 -1 1 4 6 6 4 2 2 2 2 1 -0 -1 -3 -6 -8 -7 -4 -2 0 1 1 1 0 0 -0 -0 -1 -1 -1 -1 -1 -1 -1 -1 -1 -1 -1 -1 -1 -1 -1 -1 -1 -2 -2 -2 -2 -2 -2 -2 -2 -2
-4 -5 -5 -2 -1 -3 -5 -4 -4 -4 -5 -6 -7 -8 -7 -5 -5 -6 -7 -4 -3 -4 -4 -3 -3 -2 1 1 -0 -0 1 0 -0 -0 -0 3 5 5 3 2 2 2 2 2 1 -1 -3 -6 -8 -8 -5 -2 -0 0 1 1 0 0 -0 -0 -1 -1 -1 -1 -1 -1 -1 -1 -1 -1 -1 -1 -1 -1 -1 -1 -2 -2 -2 -2 -2 -2 -2 -2 -2 -1
-4 -5 -5 -4 -4 -4 -3 -3 -3 -4 -6 -6 -6 -7 -8 -5 -4 -4 -5 -4 -3 -3 -3 -3 -2 -1 1 1 0 -0 -0 -0 -0 -0 1 2 3 3 2 1 1 2 2 2 1 -1 -3 -6 -7 -7 -5 -3 -1 -0 0 1 1 0 0 -0 -0 -0 -0 -1 -1 -1 -1 -1 -1 -1 -1 -1 -1 -1 -1 -1 -2 -2 -2 -2 -2 -2 -2 -2 -2 -1
-3 -4 -3 -2 -2 -2 -2 -1 -1 -1 -3 -4 -5 -6 -6 -4 -3 -2 -2 -1 -2 -3 -4 -3 -3 -3 -1 1 1 -0 -1 -1 -1 -1 -0 1 2 2 1 1 1 2 2 3 2 -0 -3 -6 -7 -7 -5 -3 -1 -0 0 1 1 0 0 -0 -0 -0 -0 -0 -1 -1 -1 -1 -1 -1 -1 -1 -1 -1 -1 -1 -1 -1 -2 -2 -2 -2 -2 -2 -2 -1
-1 -1 -1 -0 0 1 1 2 2 2 2 0 -1 -3 -4 -3 -2 -2 -1 -1 -1 -2 -4 -2 -2 -2 -2 0 0 -0 -2 -2 -1 -0 -0 -0 0 0 0 0 1 2 2 3 2 -0 -3 -6 -7 -7 -5 -3 -2 -0 0 1 1 1 0 -0 0 0 -0 -0 -1 -1 -1 -1 -1 -1 -1 -1 -1 -1 -1 -1 -1 -1 -1 -2 -2 -2 -2 -2 -2 -1
-1 -1 -1 -1 -1 -0 -0 0 1 2 2 1 -1 -3 -4 -4 -3 -2 -0 0 1 0 -1 -2 -2 -2 -1 1 1 0 -2 -2 -1 0 1 1 -0 -1 -1 -0 1 2 2 3 2 -0 -3 -6 -7 -7 -5 -3 -2 -0 0 1 1 0 -0 0 0 0 0 -0 -1 -1 -1 -1 -1 -1 -0 -0 -0 -0 -0 -0 -0 -0 -1 -1 -1 -2 -2 -2 -2 -1
-1 -2 -3 -3 -3 -3 -3 -2 -2 -1 0 0 -1 -2 -3 -4 -5 -5 -2 0 2 2 1 -0 -1 -2 -1 1 1 0 -1 -1 -1 0 2 2 0 -2 -2 -1 0 1 2 3 2 -0 -3 -6 -7 -7 -5 -4 -2 -1 0 1 0 -0 -0 -0 0 0 0 -0 -1 -1 -1 -1 -1 -1 -0 -0 -0 -0 0 0 0 -0 -0 -1 -1 -2 -2 -2 -2 -1
3 1 -1 -1 -2 -3 -3 -2 -2 -1 -0 0 -0 -0 -0 -1 -3 -5 -6 -2 1 2 2 1 1 -0 -1 0 1 0 -0 -1 -1 0 2 2 0 -2 -2 -1 -1 0 2 2 2 1 -2 -6 -8 -7 -5 -4 -2 -1 -0 0 0 -0 -1 -1 -0 0 0 -0 -1 -1 -1 -1 -1 -1 -0 -0 -0 0 0 1 0 0 -0 -0 -1 -1 -2 -2 -2 -1
6 5 2 2 1 0 -1 -2 -1 -1 -0 0 -0 -0 0 2 0 -3 -5 -2 -1 0 -0 1 1 2 1 1 0 -0 -1 -2 -1 0 2 1 -1 -3 -2 -1 -1 -1 0 2 4 3 0 -6 -8 -8 -6 -4 -3 -1 -0 0 -0 -1 -1 -1 -1 -0 -0 -1 -1 -1 -1 -1 -1 -1 -0 -0 -0 0 1 1 1 0 0 -0 -0 -1 -1 -2 -1 -1
6 6 4 3 3 2 2 1 -0 -0 -0 0 -0 -0 -1 1 0 -1 -3 -2 -1 -1 -2 -2 -1 0 1 1 -0 -2 -4 -3 -1 1 3 1 -2 -3 -1 -1 -2 -2 -1 1 3 5 4 -2 -6 -9 -8 -6 -4 -2 -0 0 -0 -1 -1 -2 -2 -1 -1 -1 -2 -2 -2 -2 -1 -1 -1 -0 0 0 1 1 1 0 0 0 -0 -0 -1 -1 -1 -1
4 6 6 4 3 3 3 2 2 1 0 0 0 -0 -1 -0 -0 -1 -2 -2 -2 -2 -3 -3 -3 -2 0 1 1 -2 -5 -5 -2 1 4 2 -1 -2 1 -0 -2 -3 -2 -0 2 4 6 3 -2 -6 -8 -6 -5 -3 -1 0 0 -0 -1 -1 -2 -2 -2 -2 -2 -2 -2 -2 -2 -1 -1 -0 -0 -0 0 0 0 0 0 0 0 0 -0 -1 -1 -1
4 4 4 4 3 3 3 2 2 2 2 1 1 0 0 -0 -0 -1 -1 -1 -1 -2 -2 -4 -4 -3 -1 1 2 -0 -3 -4 -3 0 3 2 -0 -1 1 1 -1 -3 -3 -2 -0 1 3 4 2 -1 -5 -6 -5 -4 -1 -0 -0 -0 -1 -1 -1 -1 -2 -2 -2 -3 -3 -2 -2 -2 -1 -1 -1 -1 -0 -0 -0 -0 -0 0 0 0 -0 -1 -1 -1
4 3 2 2 2 2 3 2 2 2 2 1 1 1 1 0 0 -0 -0 -1 -1 -1 -1 -2 -3 -3 -2 -1 0 -0 -1 -2 -2 -0 2 2 1 -0 1 0 -1 -2 -2 -2 -2 -1 -0 2 3 2 -1 -3 -4 -3 -2 -1 -1 -1 -1 -0 -1 -1 -1 -1 -2 -2 -2 -2 -2 -2 -2 -2 -2 -2 -2 -1 -1 -1 -0 -0 0 -0 -0 -1 -0 -0
5 4 2 1 1 1 1 1 1 1 0 0 0 1 1 1 1 -0 -0 -1 -1 -0 -0 -0 -1 -1 -2 -2 -1 -1 -2 -2 -1 -0 1 2 1 0 0 -0 -1 -1 -1 -2 -2 -2 -1 -0 1 2 1 -2 -3 -3 -2 -1 -1 -1 -1 -0 -0 -0 -0 -1 -1 -2 -2 -2 -2 -2 -2 -2 -2 -2 -2 -2 -2 -1 -0 -0 -0 -0 -0 -0 -0 -0
5 4 3 1 0 -0 0 0 -0 -0 -1 -1 -1 -0 1 1 1 1 1 -0 -0 -0 -0 0 1 1 0 -0 -1 -1 -2 -2 -1 0 2 2 1 1 0 -0 -1 -1 -1 -1 -1 -1 -1 -1 -0 1 2 -0 -2 -3 -3 -2 -2 -2 -2 -1 -0 0 1 0 0 -0 -1 -1 -1 -2 -2 -2 -2 -2 -2 -2 -2 -1 -0 0 0 -0 0 -0 -0 -0
3 3 2 1 0 -0 -0 -0 -0 -1 -1 -2 -1 -0 0 1 1 1 1 1 1 0 0 -0 0 0 1 1 1 -0 -1 -2 -1 0 1 2 1 1 0 -0 -1 -1 -1 -1 -1 -1 -0 -1 -1 -0 1 1 -1 -2 -3 -4 -4 -4 -4 -3 -2 -0 0 1 1 0 -0 -1 -1 -1 -2 -2 -2 -2 -2 -2 -1 -0 0 0 0 0 0 -0 -1 -1
2 1 1 1 -0 -1 -1 -1 -1 -1 -1 -1 -1 -1 -0 -0 -0 0 1 1 1 1 0 -0 -0 -0 -0 0 1 1 -0 -0 -0 0 1 1 1 1 0 -0 -1 -1 -1 -1 -1 -1 0 1 0 0 -0 -0 -0 -1 -2 -3 -5 -6 -6 -5 -4 -2 -1 -0 -0 -0 -0 -0 -1 -1 -2 -2 -2 -1 -1 -1 -0 0 1 1 1 1 0 -0 -1 -1
1 0 0 -0 -0 -1 -1 -1 -1 -1 -1 -1 -1 -1 -1 -0 -0 -0 0 0 0 0 0 -0 -0 -0 -0 0 1 1 1 1 0 0 0 0 1 1 1 0 -0 -1 -2 -2 -1 -1 1 2 2 2 0 -1 -1 -1 -0 -1 -2 -4 -6 -6 -4 -2 -1 -1 -1 -1 -0 -0 -1 -1 -2 -2 -1 -1 -1 -0 0 1 2 2 1 1 -0 -1 -1 -1
0 0 0 -0 -0 -1 -1 -1 -1 -1 -1 -1 -0 -0 -0 -0 -0 0 1 1 0 0 -0 -0 -0 -0 -0 0 1 1 1 1 1 1 0 0 0 1 1 1 -0 -1 -2 -2 -2 -1 1 3 4 3 2 -0 -2 -2 -2 -1 -1 -2 -4 -6 -6 -5 -3 -2 -2 -1 -1 -1 -1 -2 -2 -2 -1 -0 -0 1 1 2 2 2 1 0 -0 -1 -0 -0
0 0 0 -0 -0 -0 -1 -1 -1 -1 -0 -0 -0 -1 -0 -0 0 0 1 1 1 0 -0 -0 -0 -0 0 1 1 2 2 2 2 1 1 0 0 1 1 0 -0 -1 -2 -2 -2 -1 1 3 3 3 2 1 -1 -2 -2 -1 -1 -1 -1 -3 -5 -6 -6 -4 -3 -2 -2 -1 -1 -2 -2 -1 -0 0 1 2 2 2 2 1 1 0 -0 0 0 0
0 0 0 -0 -1 -1 -1 -1 -1 -0 0 0 -0 -0 -1 -0 -0 -0 -0 -0 -1 -1 -1 -1 -1 -1 -1 0 1 2 2 2 2 1 1 1 1 1 1 -0 -1 -1 -2 -2 -2 -0 2 3 3 2 1 -0 -1 -1 -2 -1 -0 0 0 -1 -2 -4 -4 -4 -3 -2 -2 -2 -1 -1 -1 -0 0 1 2 2 2 2 2 1 1 1 1 1 1 0
1 1 1 1 0 -1 -2 -1 -1 -0 0 1 1 0 -0 -0 0 0 -0 -1 -1 -2 -2 -1 -1 -1 -1 -1 0 1 2 2 2 2 1 1 1 1 0 -0 -1 -1 -1 -1 -1 -0 1 3 3 2 0 -1 -2 -2 -3 -2 -1 0 1 0 -1 -2 -4 -4 -4 -2 -1 -1 -1 -1 0 1 1 2 2 3 3 2 2 2 2 1 1 1 1 1
1 2 2 2 1 0 -0 -0 -0 -0 1 1 1 0 0 1 1 1 1 0 -0 -1 -1 -1 -0 -0 -1 -1 -0 0 1 2 2 2 2 2 1 1 0 0 -0 -0 -0 -0 -0 -1 0 1 2 1 -0 -1 -1 -2 -2 -3 -2 -2 -1 -0 0 -1 -2 -4 -4 -3 -1 -1 -0 0 1 2 2 2 3 3 3 3 2 2 2 1 1 1 1 1
2 3 3 2 1 0 -0 -0 0 0 1 1 1 1 1 1 1 1 1 0 -0 -0 -0 -0 -0 -0 -0 -1 -0 -0 1 2 2 2 2 2 2 1 1 1 1 1 1 1 -0 -1 -1 -1 -1 -0 -0 -0 -1 -2 -2 -2 -2 -2 -2 -1 -0 0 -1 -2 -2 -2 -1 -0 0 1 2 2 2 3 3 3 3 3 2 2 2 1 1 1 1 1
2 3 3 2 1 -0 -0 -0 -0 0 1 1 1 1 1 1 1 1 1 0 -0 -0 -0 -0 -0 -0 -0 -1 -1 -0 0 1 2 2 3 2 2 1 1 1 1 1 1 0 -0 -0 -1 -2 -2 -2 -2 -1 -1 -1 -2 -2 -3 -3 -2 -2 -1 -1 -1 -1 -1 -1 -0 0 1 2 2 2 3 3 3 4 4 3 2 2 2 2 2 1 1 0
1 2 2 0 -0 -0 -0 -0 -0 0 0 0 0 1 1 1 0 0 0 0 -0 -1 -1 -0 -0 -0 -0 -1 -1 -0 -0 1 2 2 2 2 2 2 2 2 2 2 1 -0 -1 -1 -1 -2 -2 -2 -3 -3 -2 -2 -2 -2 -2 -2 -3 -2 -1 -1 -1 -1 -0 0 1 1 2 2 3 3 4 4 4 4 3 3 2 2 2 2 2 1 0 -0
2 2 1 -0 -1 -1 -1 -0 0 0 -0 -0 -0 0 0 0 -0 -0 -1 -0 -0 -0 -1 -1 -0 -0 -0 -1 -1 -0 -0 1 1 1 1 1 1 2 2 2 2 2 1 -0 -2 -2 -2 -2 -2 -2 -2 -3 -3 -3 -3 -2 -2 -2 -2 -2 -1 -1 -1 -0 0 1 2 2 2 3 4 4 4 4 4 3 3 3 3 2 2 2 1 0 -1 -2
2 2 1 -0 -1 -1 -1 -0 0 0 -0 -0 -0 -0 -0 0 0 -0 -1 -1 -1 -0 -1 -1 -0 -0 -0 -0 -0 0 0 0 0 0 -0 0 0 1 1 2 2 1 1 -0 -1 -2 -3 -2 -2 -1 -2 -2 -2 -2 -2 -2 -2 -1 -1 -1 -1 -1 -0 1 1 2 2 2 3 4 5 5 5 4 4 3 3 3 3 2 2 1 -0 -1 -2 -2
2 2 1 -0 -1 -1 -0 -0 0 0 -0 -0 -0 -0 -0 -0 0 0 -0 -1 -1 -1 -1 -1 -0 -0 -0 0 0 0 0 0 -0 -0 -0 -0 -0 -0 0 0 1 1 0 -0 -1 -1 -2 -2 -1 -1 -1 -1 -1 -2 -2 -1 -1 -1 -1 -1 -0 -0 1 1 2 2 3 3 4 5 5 5 4 4 3 3 3 3 2 1 0 -1 -2 -2 -1 -1
2 2 0 -1 -1 -1 -0 0 0 -0 -0 -0 0 0 -0 -0 -0 -0 -0 -0 -1 -1 -1 -1 -0 -0 0 1 1 0 0 -0 -0 -0 -0 -0 -0 -0 -0 -0 -0 -0 -0 -0 -0 -0 -1 -2 -2 -1 -1 -0 -1 -1 -1 -1 -1 -1 -0 -0 0 1 1 2 2 3 3 4 4 4 4 4 4 4 3 3 2 1 0 -1 -2 -2 -2 -1 -0 1
1 1 -0 -1 -2 -1 -0 -0 0 -0 -0 -0 0 1 0 -0 -0 -1 -0 -1 -1 -1 -1 -1 -0 0 1 1 1 0 -0 -0 -0 -0 -0 0 0 -0 -0 -1 -1 -1 -1 -1 -1 -1 -1 -1 -1 -2 -2 -2 -1 -1 -1 -1 -0 -0 0 1 2 2 1 2 3 3 4 4 4 4 3 4 4 4 3 1 1 -0 -1 -2 -1 -1 -0 0 1 1
Height
5632 5630 5627 5625 5623 5620 5617 5615 5613 5611 5608 5606 5603 5601 5598 5595 5593 5590 5588 5585 5583 5581 5579 5576 5574 5572 5569 5567 5564 5561 5559 5556 5553 5551 5548 5545 5542 5539 5536 5533 5530 5527 5524 5521 5519 5516 5514 5511 5508 5506 5503 5500 5497 5494 5491 5488 5485 5482 5478 5475 5472 5468 5465 5462 5460 5457 5455 5453 5451 5449 5447 5445 5443 5441 5439 5437 5434 5432 5430 5427 5425 5422 5420 5418 5417 5416
5628 5626 5624 5621 5619 5616 5613 5611 5609 5607 5604 5602 5599 5597 5595 5592 5589 5586 5584 5581 5579 5576 5574 5571 5569 5566 5564 5561 5558 5556 5553 5550 5547 5545 5541 5539 5535 5532 5529 5526 5523 5520 5517 5514 5512 5509 5506 5504 5501 5498 5495 5492 5489 5486 5483 5480 5476 5473 5470 5467 5464 5461 5458 5455 5453 5451 5449 5447 5445 5443 5441 5439 5436 5434 5432 5430 5428 5426 5423 5421 5419 5416 5414 5412 5411 5409
5624 5621 5619 5617 5615 5613 5610 5607 5605 5603 5601 5598 5596 5593 5591 5588 5586 5583 5580 5577 5574 5572 5569 5567 5564 5561 5559 5556 5553 5550 5547 5544 5541 5539 5536 5532 5529 5526 5523 5520 5516 5513 5510 5507 5504 5501 5499 5496 5493 5491 5487 5484 5481 5478 5475 5471 5468 5465 5462 5459 5456 5454 5451 5449 5446 5445 5443 5441 5439 5437 5435 5433 5431 5428 5426 5424 5422 5420 5418 5416 5414 5412 5410 5408 5406 5405
5621 5618 5615 5613 5611 5609 5606 5604 5601 5598 5596 5594 5592 5589 5587 5584 5582 5579 5576 5574 5571 5568 5565 5562 5559 5556 5553 5550 5547 5544 5541 5538 5536 5533 5530 5526 5523 5520 5516 5513 5510 5506 5503 5500 5497 5494 5491 5489 5486 5483 5480 5476 5473 5470 5467 5464 5461 5458 5456 5453 5450 5447 5445 5443 5441 5439 5437 5436 5433 5431 5429 5427 5425 5423 5421 5419 5417 5416 5414 5412 5410 5408 5406 5404 5402 5401
5617 5614 5611 5609 5607 5605 5602 5600 5597 5594 5591 5590 5588 5585 5583 5580 5577 5575 5572 5570 5567 5564 5561 5557 5554 5551 5548 5545 5542 5539 5536 5533 5530 5527 5524 5521 5517 5514 5510 5506 5503 5500 5496 5493 5490 5487 5484 5481 5478 5475 5472 5469 5466 5463 5461 5458 5456 5453 5450 5447 5445 5442 5440 5438 5436 5434 5432 5430 5428 5426 5425 5423 5421 5419 5417 5416 5414 5412 5411 5409 5407 5406 5403 5401 5400 5398
5613 5610 5607 5605 5603 5601 5598 5595 5592 5590 5587 5585 5583 5581 5579 5576 5573 5571 5568 5565 5562 5560 5556 5553 5550 5546 5543 5540 5536 5534 5531 5528 5525 5522 5518 5515 5511 5507 5504 5500 5496 5493 5489 5486 5483 5480 5476 5474 5471 5468 5465 5462 5460 5457 5455 5453 5451 5448 5445 5442 5440 5437 5435 5433 5431 5430 5427 5426 5424 5422 5420 5419 5417 5416 5414 5412 5411 5409 5408 5406 5405 5403 5401 5399 5397 5396
5609 5606 5604 5601 5598 5596 5594 5591 5588 5585 5582 5580 5578 5576 5574 5572 5569 5566 5563 5561 5558 5555 5552 5548 5545 5542 5538 5535 5531 5528 5525 5523 5520 5516 5513 5509 5505 5501 5497 5494 5490 5486 5482 5479 5476 5472 5469 5466 5464 5461 5459 5457 5455 5452 5451 5448 5446 5443 5441 5438 5435 5433 5431 5429 5427 5425 5423 5421 5420 5418 5416 5415 5413 5412 5411 5409 5407 5406 5404 5403 5401 5400 5398 5396 5394 5393
5604 5602 5600 5597 5594 5591 5589 5587 5584 5581 5578 5575 5573 5571 5569 5566 5564 5562 5559 5556 5553 5550 5547 5544 5540 5537 5534 5530 5526 5522 5519 5517 5514 5511 5507 5503 5499 5495 5491 5487 5484 5480 5476 5472 5469 5466 5463 5461 5458 5456 5454 5452 5450 5448 5446 5444 5442 5439 5436 5434 5431 5429 5426 5424 5423 5421 5419 5417 5416 5415 5413 5411 5410 5409 5407 5406 5404 5402 5401 5400 5398 5396 5395 5393 5392 5390
5600 5597 5595 5592 5590 5587 5584 5581 5579 5577 5574 5571 5568 5566 5564 5561 5558 5556 5554 5552 5549 5546 5542 5539 5536 5532 5528 5525 5521 5518 5514 5511 5508 5505 5502 5497 5493 5489 5485 5481 5477 5473 5469 5466 5462 5459 5457 5455 5453 5451 5449 5447 5446 5444 5442 5440 5438 5435 5432 5429 5427 5424 5422 5421 5419 5417 5416 5414 5413 5411 5410 5408 5407 5405 5404 5402 5401 5399 5398 5396 5395 5394 5392 5391 5389 5388
5596 5593 5590 5587 5585 5583 5581 5577 5574 5571 5569 5566 5563 5561 5559 5556 5553 5550 5548 5546 5544 5541 5538 5535 5532 5528 5523 5519 5515 5512 5510 5506 5502 5499 5496 5491 5487 5482 5479 5475 5471 5467 5463 5460 5456 5454 5451 5450 5448 5446 5445 5443 5441 5440 5438 5436 5433 5431 5428 5425 5423 5420 5418 5417 5415 5414 5412 5411 5409 5408 5406 5405 5403 5402 5401 5399 5397 5396 5395 5393 5392 5391 5389 5388 5386 5385
5590 5588 5586 5583 5580 5578 5576 5573 5570 5567 5564 5561 5558 5555 5553 5551 5549 5546 5543 5540 5538 5535 5532 5529 5527 5524 5520 5515 5510 5506 5504 5501 5498 5493 5489 5485 5480 5476 5472 5469 5465 5461 5458 5454 5451 5449 5447 5445 5443 5442 5440 5439 5437 5436 5434 5431 5429 5426 5424 5421 5419 5417 5415 5413 5412 5411 5409 5407 5406 5404 5403 5401 5400 5399 5397 5396 5394 5393 5391 5390 5389 5387 5386 5385 5383 5382
5586 5583 5581 5578 5576 5573 5571 5568 5565 5562 5560 5557 5554 5550 5547 5545 5543 5541 5539 5536 5533 5530 5527 5523 5521 5518 5515 5511 5506 5501 5498 5495 5492 5489 5484 5479 5474 5470 5466 5463 5460 5456 5453 5450 5447 5444 5442 5441 5439 5437 5436 5435 5433 5431 5430 5427 5425 5422 5420 5418 5416 5413 5412 5410 5409 5407 5406 5404 5402 5401 5400 5398 5397 5395 5394 5392 5391 5390 5388 5387 5386 5384 5383 5381 5381 5380
5581 5578 5576 5574 5571 5569 5566 5563 5560 5557 5555 5552 5549 5546 5543 5540 5537 5535 5533 5530 5527 5525 5522 5519 5515 5512 5508 5505 5500 5496 5493 5490 5486 5483 5479 5473 5468 5464 5461 5457 5454 5451 5448 5445 5443 5441 5439 5437 5435 5433 5432 5431 5429 5427 5426 5423 5421 5419 5416 5414 5412 5410 5408 5407 5406 5404 5402 5401 5399 5398 5396 5395 5393 5392 5390 5389 5387 5386 5385 5383 5382 5381 5380 5379 5378 5377
5576 5573 5571 5569 5566 5564 5561 5558 5555 5552 5550 5547 5544 5541 5538 5535 5532 5529 5527 5523 5520 5518 5516 5513 5511 5507 5503 5499 5494 5490 5486 5484 5481 5477 5473 5468 5463 5459 5456 5452 5449 5446 5444 5441 5439 5437 5435 5433 5431 5430 5428 5427 5425 5424 5421 5419 5417 5415 5413 5411 5409 5407 5405 5404 5402 5401 5399 5397 5396 5394 5393 5391 5390 5388 5387 5385 5384 5383 5381 5380 5379 5377 5376 5376 5375 5374
5571 5568 5566 5564 5561 5559 5556 5553 5550 5547 5544 5541 5539 5536 5532 5529 5526 5523 5521 5517 5514 5511 5509 5507 5504 5501 5498 5494 5490 5485 5481 5477 5474 5472 5468 5463 5457 5453 5451 5448 5445 5442 5440 5437 5435 5433 5431 5430 5428 5426 5425 5423 5422 5420 5418 5416 5413 5411 5409 5407 5406 5404 5402 5401 5399 5397 5396 5394 5393 5391 5390 5388 5386 5385 5383 5382 5380 5379 5378 5376 5375 5374 5373 5373 5372 5371
5566 5564 5561 5559 5556 5554 5551 5549 5546 5542 5539 5536 5533 5530 5527 5524 5521 5517 5514 5511 5508 5506 5503 5501 5498 5495 5491 5487 5483 5480 5476 5472 5468 5465 5463 5458 5453 5448 5446 5443 5441 5438 5436 5434 5431 5429 5427 5426 5424 5422 5421 5420 5418 5416 5414 5412 5410 5408 5406 5404 5402 5401 5399 5397 5396 5394 5392 5391 5389 5388 5386 5385 5383 5381 5380 5378 5377 5376 5374 5373 5372 5371 5370 5369 5368 5367
5562 5559 5556 5553 5551 5549 5546 5543 5540 5536 5533 5530 5527 5525 5522 5519 5516 5512 5508 5505 5502 5499 5496 5493 5491 5489 5485 5480 5476 5472 5471 5467 5463 5459 5457 5453 5448 5444 5441 5439 5437 5434 5432 5430 5428 5426 5424 5421 5420 5418 5417 5416 5415 5413 5411 5409 5407 5405 5403 5401 5400 5398 5396 5394 5393 5391 5389 5388 5386 5385 5383 5381 5380 5378 5376 5375 5373 5372 5371 5370 5368 5367 5366 5365 5364 5364
5557 5554 5551 5548 5545 5543 5541 5538 5534 5530 5526 5524 5521 5519 5516 5513 5510 5506 5503 5499 5496 5493 5490 5486 5483 5481 5478 5475 5470 5465 5463 5461 5457 5454 5451 5448 5444 5441 5438 5436 5433 5431 5429 5426 5424 5422 5420 5418 5416 5414 5413 5412 5411 5409 5407 5405 5403 5402 5400 5398 5396 5395 5393 5391 5390 5388 5386 5385 5383 5381 5380 5378 5376 5375 5373 5372 5371 5369 5368 5366 5365 5364 5363 5362 5361 5360
5551 5549 5546 5542 5539 5536 5534 5531 5529 5525 5521 5517 5515 5512 5510 5506 5504 5501 5497 5494 5490 5487 5484 5480 5476 5473 5470 5467 5463 5459 5456 5454 5451 5449 5446 5444 5441 5437 5435 5432 5430 5428 5426 5423 5421 5418 5416 5414 5412 5411 5409 5408 5407 5406 5404 5402 5400 5399 5397 5395 5394 5392 5390 5388 5386 5385 5383 5381 5380 5378 5377 5375 5374 5372 5371 5369 5368 5366 5365 5363 5362 5361 5360 5359 5358 5357
5546 5543 5541 5537 5533 5530 5527 5524 5521 5518 5515 5511 5509 5506 5504 5501 5498 5495 5491 5488 5484 5481 5477 5474 5471 5467 5464 5460 5456 5452 5450 5448 5446 5443 5441 5440 5437 5434 5432 5429 5427 5425 5423 5420 5418 5415 5413 5411 5409 5407 5406 5405 5404 5402 5401 5399 5397 5396 5394 5392 5391 5389 5387 5385 5383 5381 5380 5378 5377 5376 5374 5373 5371 5369 5368 5366 5365 5363 5362 5361 5360 5358 5357 5356 5355 5354
5540 5537 5534 5531 5528 5524 5521 5518 5514 5511 5508 5505 5502 5499 5496 5494 5491 5487 5485 5481 5478 5474 5471 5467 5464 5461 5458 5455 5451 5447 5444 5442 5440 5438 5436 5435 5433 5431 5428 5426 5424 5421 5420 5417 5415 5412 5409 5407 5405 5404 5402 5401 5400 5399 5397 5396 5394 5393 5391 5390 5388 5386 5384 5382 5380 5379 5377 5376 5374 5373 5371 5370 5368 5367 5366 5364 5362 5361 5360 5358 5357 5356 5355 5354 5353 5352
5534 5531 5527 5524 5521 5518 5515 5512 5508 5504 5500 5497 5495 5492 5489 5486 5483 5480 5477 5474 5471 5467 5464 5461 5458 5455 5452 5449 5445 5441 5439 5437 5436 5434 5432 5430 5429 5427 5425 5422 5420 5418 5416 5414 5411 5409 5406 5404 5402 5400 5399 5398 5397 5396 5394 5393 5391 5390 5388 5387 5385 5383 5381 5379 5377 5376 5374 5373 5371 5370 5369 5367 5366 5364 5363 5361 5360 5359 5357 5356 5354 5353 5352 5351 5350 5349
5528 5525 5521 5518 5515 5511 5508 5505 5501 5497 5493 5490 5487 5485 5482 5479 5476 5474 5470 5467 5464 5461 5458 5455 5451 5449 5446 5443 5440 5436 5434 5432 5431 5429 5427 5426 5424 5423 5421 5419 5417 5415 5413 5411 5408 5406 5403 5401 5399 5397 5396 5395 5394 5393 5391 5390 5389 5387 5386 5384 5382 5380 5378 5377 5375 5373 5372 5370 5369 5367 5366 5365 5363 5362 5361 5359 5358 5356 5355 5353 5352 5351 5350 5349 5348 5347
5522 5519 5516 5512 5509 5506 5502 5499 5495 5491 5487 5484 5480 5477 5474 5471 5469 5466 5464 5461 5458 5454 5451 5448 5445 5442 5440 5437 5434 5431 5430 5428 5426 5425 5423 5421 5420 5419 5417 5415 5413 5412 5410 5408 5405 5402 5400 5397 5396 5394 5393 5392 5391 5390 5389 5387 5386 5385 5383 5381 5379 5378 5376 5374 5372 5371 5369 5368 5366 5365 5364 5362 5361 5360 5358 5357 5356 5354 5353 5351 5350 5349 5347 5346 5346 5345
5517 5514 5511 5507 5504 5500 5497 5494 5490 5486 5482 5478 5475 5471 5468 5465 5462 5459 5457 5454 5451 5447 5444 5441 5439 5436 5434 5432 5430 5427 5425 5424 5422 5421 5419 5417 5416 5415 5414 5411 5410 5408 5406 5405 5402 5399 5396 5395 5393 5391 5390 5389 5388 5387 5386 5385 5383 5382 5380 5378 5377 5375 5373 5372 5370 5369 5367 5366 5364 5363 5361 5360 5359 5357 5356 5355 5354 5352 5351 5350 5348 5347 5346 5345 5344 5343
5511 5508 5505 5502 5498 5495 5491 5488 5484 5481 5477 5473 5469 5466 5462 5459 5456 5453 5451 5448 5445 5441 5438 5435 5433 5431 5430 5428 5426 5423 5421 5420 5419 5417 5416 5414 5412 5411 5410 5408 5406 5405 5403 5401 5399 5396 5394 5392 5390 5388 5387 5386 5385 5384 5383 5382 5381 5379 5377 5376 5374 5373 5371 5369 5368 5366 5365 5363 5362 5361 5359 5358 5356 5355 5354 5353 5352 5351 5349 5348 5346 5345 5344 5343 5342 5341
5505 5502 5498 5495 5492 5489 5485 5481 5478 5475 5471 5467 5462 5458 5455 5452 5449 5446 5444 5442 5440 5437 5433 5431 5428 5426 5425 5423 5421 5420 5418 5416 5415 5413 5412 5410 5408 5407 5406 5405 5403 5401 5400 5398 5396 5393 5391 5389 5387 5386 5385 5383 5382 5381 5381 5379 5378 5376 5375 5373 5372 5370 5369 5367 5366 5364 5362 5361 5360 5358 5357 5356 5355 5353 5352 5351 5350 5349 5347 5346 5345 5343 5342 5341 5340 5340
5501 5496 5492 5488 5485 5482 5478 5474 5471 5467 5464 5460 5456 5452 5448 5446 5443 5440 5437 5436 5434 5432 5429 5426 5424 5422 5421 5419 5417 5416 5414 5412 5411 5410 5408 5406 5405 5403 5402 5401 5399 5398 5397 5395 5393 5391 5388 5386 5384 5383 5382 5381 5380 5379 5378 5377 5375 5374 5372 5371 5369 5368 5366 5365 5363 5361 5360 5358 5357 5356 5355 5353 5352 5351 5350 5349 5348 5347 5346 5344 5343 5342 5341 5340 5339 5338
5497 5492 5487 5483 5479 5475 5471 5467 5464 5460 5457 5453 5450 5446 5442 5440 5437 5434 5432 5430 5428 5426 5423 5422 5420 5418 5416 5415 5413 5412 5410 5409 5407 5406 5404 5403 5401 5400 5399 5397 5396 5395 5393 5392 5391 5389 5386 5383 5381 5380 5379 5378 5377 5376 5375 5374 5373 5371 5369 5368 5366 5365 5364 5362 5361 5359 5357 5356 5355 5353 5352 5351 5350 5349 5348 5347 5346 5345 5343 5342 5341 5340 5339 5338 5337 5337
5492 5487 5482 5478 5473 5469 5465 5461 5457 5454 5450 5447 5444 5441 5437 5434 5432 5429 5427 5425 5423 5421 5419 5417 5416 5414 5412 5411 5409 5407 5406 5405 5403 5402 5400 5399 5397 5396 5396 5394 5393 5391 5390 5389 5388 5386 5385 5382 5379 5378 5377 5376 5375 5374 5373 5372 5370 5369 5367 5366 5364 5363 5361 5360 5358 5356 5355 5354 5352 5351 5350 5349 5348 5347 5346 5345 5344 5342 5341 5340 5339 5338 5337 5336 5336 5336
5486 5482 5477 5473 5468 5464 5459 5456 5451 5448 5445 5441 5438 5436 5433 5430 5427 5425 5422 5420 5418 5417 5414 5413 5411 5410 5408 5406 5404 5403 5401 5401 5400 5398 5397 5395 5394 5393 5392 5391 5389 5388 5386 5386 5384 5384 5383 5381 5378 5376 5374 5373 5372 5371 5371 5369 5368 5366 5365 5363 5362 5361 5359 5357 5356 5354 5353 5351 5350 5349 5348 5346 5346 5344 5343 5342 5341 5340 5339 5338 5337 5336 5336 5335 5335 5334
5480 5476 5471 5467 5462 5458 5454 5450 5446 5443 5440 5436 5434 5431 5428 5426 5423 5421 5418 5416 5414 5412 5410 5408 5407 5405 5404 5402 5401 5399 5397 5396 5396 5395 5393 5391 5391 5390 5389 5387 5386 5385 5383 5382 5381 5380 5380 5379 5377 5375 5373 5371 5370 5369 5368 5367 5366 5364 5363 5361 5360 5358 5357 5355 5354 5352 5351 5349 5348 5346 5345 5344 5343 5342 5341 5340 5339 5338 5337 5336 5336 5335 5334 5334 5333 5333
5473 5469 5464 5460 5456 5452 5448 5445 5441 5438 5435 5432 5430 5427 5425 5422 5419 5417 5415 5412 5410 5408 5406 5404 5402 5401 5400 5398 5396 5395 5394 5392 5391 5390 5389 5388 5387 5386 5386 5384 5383 5382 5381 5380 5379 5377 5376 5376 5375 5373 5372 5370 5368 5367 5366 5365 5363 5362 5361 5359 5358 5356 5355 5353 5351 5350 5348 5347 5346 5344 5343 5342 5341 5339 5338 5337 5336 5336 5335 5334 5334 5333 5333 5332 5332 5332
5467 5462 5458 5454 5450 5446 5443 5440 5436 5434 5431 5428 5426 5423 5421 5418 5416 5413 5411 5408 5406 5404 5402 5401 5399 5397 5395 5394 5392 5391 5390 5389 5388 5386 5386 5385 5384 5383 5382 5381 5380 5379 5378 5377 5376 5375 5374 5373 5372 5371 5370 5368 5366 5365 5364 5362 5361 5360 5358 5357 5356 5354 5353 5351 5350 5348 5346 5345 5344 5342 5341 5340 5338 5337 5336 5335 5334 5333 5333 5332 5332 5331 5331 5331 5331 5332
5461 5456 5452 5448 5444 5441 5438 5435 5432 5429 5426 5424 5421 5419 5417 5414 5412 5409 5407 5405 5402 5401 5398 5396 5395 5393 5391 5390 5389 5387 5386 5385 5384 5383 5382 5381 5381 5380 5379 5378 5377 5376 5376 5375 5374 5373 5372 5371 5370 5369 5368 5366 5365 5363 5361 5360 5359 5357 5356 5355 5353 5352 5351 5349 5348 5346 5345 5343 5342 5340 5339 5337 5336 5335 5334 5333 5332 5331 5331 5331 5331 5330 5331 5331 5331 5331
5455 5451 5446 5443 5439 5436 5433 5431 5428 5425 5422 5420 5417 5415 5413 5410 5408 5406 5403 5401 5399 5397 5395 5393 5391 5390 5388 5386 5385 5384 5382 5381 5381 5380 5379 5378 5378 5377 5376 5376 5375 5374 5373 5372 5371 5371 5370 5369 5368 5367 5366 5364 5363 5361 5360 5358 5356 5355 5353 5352 5351 5350 5348 5347 5346 5344 5342 5341 5340 5338 5337 5335 5334 5333 5332 5331 5330 5330 5330 5329 5329 5329 5330 5330 5330 5330
5449 5446 5441 5438 5435 5432 5429 5426 5424 5421 5418 5416 5413 5411 5408 5406 5404 5401 5400 5397 5395 5393 5391 5390 5388 5386 5385 5383 5381 5380 5379 5378 5377 5376 5376 5375 5375 5374 5374 5373 5372 5371 5371 5370 5369 5369 5368 5367 5366 5365 5364 5362 5361 5360 5358 5356 5354 5352 5351 5349 5348 5347 5346 5345 5343 5341 5340 5339 5337 5336 5334 5333 5332 5331 5330 5329 5329 5328 5328 5328 5328 5329 5329 5329 5329 5330
5444 5440 5437 5434 5431 5428 5425 5422 5419 5417 5414 5411 5409 5406 5404 5402 5400 5398 5396 5394 5392 5390 5388 5386 5384 5383 5381 5380 5378 5377 5376 5375 5374 5374 5373 5372 5372 5371 5371 5371 5370 5369 5368 5368 5367 5367 5366 5366 5365 5363 5362 5360 5359 5358 5356 5355 5353 5351 5349 5347 5346 5345 5343 5342 5341 5339 5338 5336 5335 5333 5332 5331 5330 5329 5328 5327 5327 5327 5327 5327 5328 5328 5329 5329 5329 5329
5439 5436 5433 5430 5427 5424 5421 5418 5415 5413 5410 5407 5405 5403 5401 5398 5396 5394 5392 5390 5388 5386 5385 5383 5381 5379 5378 5376 5376 5374 5373 5372 5372 5371 5371 5370 5370 5369 5369 5368 5368 5367 5366 5366 5365 5365 5365 5364 5363 5362 5360 5359 5357 5356 5355 5353 5351 5350 5347 5346 5344 5342 5341 5339 5338 5336 5335 5334 5332 5331 5330 5329 5328 5327 5326 5326 5326 5326 5327 5327 5328 5328 5329 5329 5329 5330
5435 5432 5429 5426 5423 5420 5417 5414 5411 5409 5406 5404 5401 5399 5397 5395 5393 5391 5389 5387 5385 5383 5381 5379 5378 5376 5375 5374 5372 5371 5371 5370 5369 5369 5368 5368 5367 5367 5367 5366 5366 5365 5364 5364 5363 5363 5363 5362 5361 5360 5359 5357 5356 5354 5352 5351 5350 5348 5346 5344 5342 5340 5338 5337 5336 5334 5333 5331 5330 5329 5328 5327 5326 5326 5326 5326 5326 5326 5327 5327 5328 5328 5329 5329 5330 5330
5431 5428 5425 5422 5419 5416 5413 5410 5407 5405 5402 5400 5398 5396 5393 5391 5390 5387 5386 5384 5381 5380 5378 5376 5375 5373 5372 5371 5370 5369 5368 5367 5367 5366 5366 5366 5366 5366 5365 5365 5364 5363 5363 5362 5362 5361 5361 5361 5360 5358 5357 5355 5354 5352 5351 5349 5348 5346 5344 5342 5340 5338 5336 5335 5333 5332 5331 5329 5328 5327 5326 5326 5325 5325 5325 5326 5326 5326 5327 5328 5329 5329 5330 5330 5330 5330
5427 5424 5421 5418 5415 5412 5409 5406 5404 5401 5399 5397 5395 5392 5390 5388 5386 5384 5382 5380 5378 5376 5375 5373 5371 5370 5369 5368 5367 5366 5366 5365 5365 5365 5364 5364 5364 5364 5363 5363 5362 5362 5361 5361 5360 5360 5359 5359 5358 5356 5355 5354 5352 5350 5349 5347 5346 5344 5342 5341 5339 5337 5335 5333 5331 5330 5329 5328 5327 5326 5326 5325 5325 5325 5326 5326 5326 5327 5328 5329 5329 5330 5330 5330 5330 5330
5424 5421 5418 5415 5411 5408 5406 5403 5401 5398 5396 5394 5392 5390 5387 5385 5383 5381 5379 5377 5376 5374 5372 5370 5369 5368 5366 5366 5365 5364 5364 5363 5363 5363 5363 5363 5363 5362 5362 5362 5361 5361 5360 5360 5359 5358 5357 5357 5356 5355 5353 5352 5350 5348 5347 5345 5344 5342 5340 5338 5337 5335 5333 5331 5330 5329 5327 5327 5326 5326 5325 5325 5325 5326 5326 5327 5328 5328 5329 5330 5330 5331 5331 5331 5331 5331
5420 5417 5414 5411 5408 5405 5402 5400 5398 5396 5393 5391 5389 5387 5384 5382 5380 5378 5376 5375 5373 5371 5369 5368 5366 5365 5365 5363 5363 5362 5362 5362 5362 5362 5362 5362 5362 5361 5361 5361 5360 5360 5359 5358 5357 5357 5356 5355 5354 5353 5351 5350 5349 5347 5345 5343 5341 5340 5338 5336 5335 5333 5331 5330 5329 5328 5327 5326 5326 5326 5326 5326 5326 5327 5327 5328 5329 5330 5330 5331 5331 5331 5331 5331 5331 5331
5416 5413 5410 5407 5405 5402 5400 5397 5395 5393 5391 5388 5386 5384 5381 5379 5377 5376 5374 5372 5370 5368 5366 5365 5364 5363 5362 5361 5361 5361 5361 5361 5361 5361 5361 5361 5361 5361 5360 5360 5359 5359 5358 5357 5356 5355 5354 5353 5352 5351 5350 5348 5347 5345 5343 5341 5340 5338 5336 5335 5333 5332 5331 5329 5328 5327 5327 5326 5326 5326 5327 5327 5328 5328 5329 5330 5331 5331 5331 5331 5332 5332 5332 5332 5331 5331
5412 5410 5407 5404 5401 5399 5397 5394 5392 5390 5387 5386 5383 5381 5379 5376 5374 5372 5371 5369 5367 5366 5364 5363 5362 5361 5361 5360 5360 5360 5360 5360 5360 5360 5360 5360 5360 5360 5359 5359 5358 5357 5356 5356 5354 5353 5353 5352 5351 5349 5348 5346 5345 5343 5341 5340 5338 5336 5335 5333 5332 5331 5330 5329 5328 5327 5327 5327 5327 5328 5328 5329 5329 5330 5331 5331 5332 5332 5332 5333 5333 5333 5332 5332 5332 5332
5409 5406 5404 5401 5399 5396 5394 5391 5389 5387 5385 5383 5381 5378 5376 5374 5372 5370 5368 5366 5365 5364 5362 5361 5361 5360 5359 5359 5359 5359 5359 5359 5359 5359 5359 5359 5359 5358 5358 5358 5357 5356 5356 5354 5353 5352 5351 5350 5349 5348 5346 5345 5343 5341 5340 5338 5336 5335 5334 5332 5331 5330 5330 5329 5329 5328 5328 5329 5329 5330 5330 5331 5331 5332 5332 5333 5333 5334 5334 5334 5334 5334 5333 5333 5333 5333
5406 5403 5401 5398 5396 5393 5391 5389 5386 5384 5382 5380 5378 5376 5374 5371 5370 5368 5366 5365 5363 5362 5361 5360 5360 5359 5359 5358 5358 5358 5358 5358 5358 5358 5358 5358 5358 5357 5357 5357 5356 5356 5355 5354 5352 5351 5350 5349 5347 5346 5345 5344 5342 5340 5338 5337 5336 5334 5333 5332 5331 5330 5330 5330 5330 5330 5330 5330 5331 5331 5332 5332 5333 5333 5334 5334 5335 5335 5335 5335 5335 5335 5334 5334 5334 5334
5403 5401 5398 5396 5393 5391 5388 5386 5384 5382 5380 5377 5376 5373 5371 5369 5367 5366 5364 5363 5362 5361 5360 5359 5359 5358 5358 5358 5358 5358 5358 5358 5358 5358 5358 5357 5357 5356 5356 5356 5355 5355 5354 5353 5352 5351 5349 5348 5346 5345 5343 5342 5341 5339 5337 5336 5335 5333 5333 5332 5331 5331 5331 5331 5331 5331 5331 5332 5332 5333 5333 5334 5334 5335 5336 5336 5336 5336 5336 5336 5336 5336 5335 5335 5335 5335
5400 5398 5395 5393 5390 5388 5386 5384 5381 5379 5377 5375 5373 5371 5369 5367 5366 5364 5363 5361 5361 5360 5359 5358 5358 5358 5358 5358 5358 5358 5358 5358 5357 5357 5357 5357 5356 5356 5356 5355 5354 5354 5353 5352 5351 5350 5348 5347 5345 5344 5342 5341 5339 5338 5336 5335 5334 5333 5333 5332 5332 5332 5332 5332 5333 5333 5333 5334 5334 5335 5335 5335 5336 5336 5337 5337 5337 5337 5337 5337 5337 5337 5336 5336 5336 5336
5398 5395 5393 5390 5388 5386 5383 5381 5379 5377 5375 5373 5371 5370 5368 5366 5364 5363 5361 5361 5360 5359 5359 5358 5358 5358 5358 5358 5358 5358 5358 5357 5357 5357 5357 5356 5356 5355 5355 5354 5354 5353 5352 5351 5350 5349 5348 5346 5344 5343 5341 5339 5338 5337 5336 5335 5334 5334 5333 5334 5334 5334 5334 5334 5334 5335 5335 5336 5336 5336 5336 5337 5337 5338 5339 5339 5339 5338 5338 5338 5338 5338 5338 5338 5337 5337